WetterOnline ( http://www.wetteronline.de )

Wetter aktuell Altmark

Aktuelles Wetter: Lüchow (18m)

6-stündlich | Neueste Meldungen
Ortszeit Temperatur Wetter
Do, 16.08. 20:00 26.9° C wolkig
Do, 16.08. 14:00 27.1° C leicht bewölkt
Do, 16.08. 8:00 16.5° C wolkenlos
Do, 16.08. 2:00 14.6° C wolkig
Mi, 15.08. 20:00 22.3° C bedeckt
Mi, 15.08. 14:00 21.8° C bedeckt
Mi, 15.08. 8:00 16.0° C bewölkt
Mi, 15.08. 2:00 16.3° C bewölkt
Ortszeit Temperatur Wetter
Do, 16.08. 23:00 18.4° C leicht bewölkt
Do, 16.08. 22:50 18.4° C leicht bewölkt
Do, 16.08. 22:40 18.5° C leicht bewölkt
Do, 16.08. 22:30 19.3° C leicht bewölkt
Do, 16.08. 22:20 19.3° C leicht bewölkt
Do, 16.08. 22:10 19.6° C wolkig
Do, 16.08. 22:00 20.3° C wolkig
Do, 16.08. 21:30 21.1° C wolkig
Do, 16.08. 21:00 22.7° C wolkig
Do, 16.08. 20:30 25.0° C wolkig
Do, 16.08. 20:00 26.9° C wolkig
Ortszeit Relative Feuchte Sichtweite
Do, 16.08. 20:00 43% 30 km
Do, 16.08. 14:00 40% 14 km
Do, 16.08. 8:00 81% 13 km
Do, 16.08. 2:00 93% 17 km
Mi, 15.08. 20:00 64% 35 km
Mi, 15.08. 14:00 64% 35 km
Mi, 15.08. 8:00 88% 24 km
Mi, 15.08. 2:00 90% 28 km
Ortszeit Relative Feuchte Sichtweite
Do, 16.08. 23:00 83% 23 km
Do, 16.08. 22:50 83% -
Do, 16.08. 22:40 81% -
Do, 16.08. 22:30 80% 26 km
Do, 16.08. 22:20 80% -
Do, 16.08. 22:10 72% -
Do, 16.08. 22:00 73% 27 km
Do, 16.08. 21:30 71% 29 km
Do, 16.08. 21:00 62% 30 km
Do, 16.08. 20:30 51% 30 km
Do, 16.08. 20:00 43% 30 km
Ortszeit Niederschlagsmenge Niederschlagsart
Do, 16.08. 20:00 0.0 l/m2 in 12 Std. -
Do, 16.08. 14:00 0.0 l/m2 in 6 Std. -
Do, 16.08. 8:00 0.0 l/m2 in 12 Std. -
Do, 16.08. 2:00 0.0 l/m2 in 6 Std. -
Mi, 15.08. 20:00 0.0 l/m2 in 12 Std. -
Mi, 15.08. 14:00 0.0 l/m2 in 6 Std. -
Mi, 15.08. 8:00 0.1 l/m2 in 12 Std. -
Mi, 15.08. 2:00 0.1 l/m2 in 6 Std. Sprühregen
Ortszeit Niederschlagsmenge Niederschlagsart
Do, 16.08. 23:00 0.0 l/m2 in 1 Std. -
Do, 16.08. 22:50 keine Meldung -
Do, 16.08. 22:40 keine Meldung -
Do, 16.08. 22:30 0.0 l/m2 in 1 Std. -
Do, 16.08. 22:20 keine Meldung -
Do, 16.08. 22:10 keine Meldung -
Do, 16.08. 22:00 0.0 l/m2 in 1 Std. -
Do, 16.08. 21:30 0.0 l/m2 in 1 Std. -
Do, 16.08. 21:00 0.0 l/m2 in 1 Std. -
Do, 16.08. 20:30 0.0 l/m2 in 1 Std. -
Do, 16.08. 20:00 0.0 l/m2 in 1 Std. -
Ortszeit Stärke Spitze Richtung
km/h Bft. km/h Grad Sektor
Do, 16.08. 20:00 4 1 29 290° W
Do, 16.08. 14:00 14 3 29 170° S
Do, 16.08. 8:00 4 1 7 170° S
Do, 16.08. 2:00 4 1 7 190° S
Mi, 15.08. 20:00 6 1 22 230° SW
Mi, 15.08. 14:00 11 2 29 270° W
Mi, 15.08. 8:00 7 2 18 230° SW
Mi, 15.08. 2:00 9 2 33 250° W
Ortszeit Stärke Spitze Richtung
km/h Bft. km/h Grad Sektor
Do, 16.08. 23:00 0 0 0 - -
Do, 16.08. 22:50 0 0 - 130° SO
Do, 16.08. 22:40 0 0 - 300° NW
Do, 16.08. 22:30 0 0 0 - -
Do, 16.08. 22:20 0 0 - - -
Do, 16.08. 22:10 0 0 - - -
Do, 16.08. 22:00 2 1 4 70° O
Do, 16.08. 21:30 2 1 4 20° N
Do, 16.08. 21:00 2 1 6 310° NW
Do, 16.08. 20:30 0 0 4 - -
Do, 16.08. 20:00 4 1 11 290° W
Ortszeit Untergrenze Bedeckung Gattung
total tief tief mittel hoch
Do, 16.08. 20:00 9000 m 8/8 0/8 - - -
Do, 16.08. 14:00 1500 m 2/8 2/8 - - -
Do, 16.08. 8:00 - 0/8 0/8 - - -
Do, 16.08. 2:00 10500 m 7/8 0/8 - - -
Mi, 15.08. 20:00 2100 m 8/8 8/8 - - -
Mi, 15.08. 14:00 1500 m 8/8 8/8 - - -
Mi, 15.08. 8:00 1500 m 8/8 4/8 - - -
Mi, 15.08. 2:00 1140 m 8/8 7/8 - - -
Ortszeit Bedeckungsgrad in Achtel und Wolkenuntergrenze
Do, 16.08. 23:00 1(2400m)
Do, 16.08. 22:50 1(2400m) 2(10500m)
Do, 16.08. 22:40 1(2400m) 3(10500m)
Do, 16.08. 22:30 2(9000m) 4(9000m) 5(10500m)
Do, 16.08. 22:20 2(9000m) 4(9000m) 5(10500m)
Do, 16.08. 22:10 5(9000m) 7(9000m) 8(10500m)
Do, 16.08. 22:00 7(9000m) 8(9000m) 8(10500m)
Do, 16.08. 21:30 8(9000m) 8(10500m)
Do, 16.08. 21:00 2(8700m) 8(9000m) 8(10500m)
Do, 16.08. 20:30 8(9000m) 8(9000m) 8(10500m)
Do, 16.08. 20:00 5(9000m) 8(10500m) 8(10500m)
Ortszeit Luftdruck NN (hPa) Tendenz (hPa in 3 Std.)
Do, 16.08. 20:00 1013 - 0,6
Do, 16.08. 14:00 1016 - 1,6
Do, 16.08. 8:00 1018 - 0,3
Do, 16.08. 2:00 1019 - 0,1
Mi, 15.08. 20:00 1018 - 0,3
Mi, 15.08. 14:00 1019 + 0,3
Mi, 15.08. 8:00 1017 + 0,9
Mi, 15.08. 2:00 1016 + 1,4
Ortszeit Luftdruck NN (hPa) Tendenz (hPa in 3 Std.)
Do, 16.08. 23:00 1014 + 0,3
Do, 16.08. 22:50 1014 keine Meldung
Do, 16.08. 22:40 1014 keine Meldung
Do, 16.08. 22:30 1014 + 0,5
Do, 16.08. 22:20 1014 keine Meldung
Do, 16.08. 22:10 1014 keine Meldung
Do, 16.08. 22:00 1014 + 0,7
Do, 16.08. 21:30 1014 + 0,4
Do, 16.08. 21:00 1014 0,0
Do, 16.08. 20:30 1014 - 0,3
Do, 16.08. 20:00 1013 - 0,6
Ortszeit Schneehöhe (cm)
Do, 16.08. 20:00 -
Do, 16.08. 14:00 -
Do, 16.08. 8:00 -
Do, 16.08. 2:00 -
Mi, 15.08. 20:00 -
Mi, 15.08. 14:00 -
Mi, 15.08. 8:00 -
Mi, 15.08. 2:00 -
Ortszeit Schneehöhe (cm)
Do, 16.08. 23:00 -
Do, 16.08. 22:50 -
Do, 16.08. 22:40 -
Do, 16.08. 22:30 -
Do, 16.08. 22:20 -
Do, 16.08. 22:10 -
Do, 16.08. 22:00 -
Do, 16.08. 21:30 -
Do, 16.08. 21:00 -
Do, 16.08. 20:30 -
Do, 16.08. 20:00 -
Link zu dieser Seite / Seite empfehlen

Das Wetter in ...